Location: La Pernelle
(49.6188°N, 1.2999°W)
Time: 15:28:27
(UTC+00:00)

Cosmos 2278 - Pass Details

Date: 12 June 2021
Orbit: 841 x 851 km, 71.1° (Epoch: 04 August)

Event Time Altitude Azimuth Distance (km) Brightness Sun altitude
Rises 20:59:53 0° 205° (SSW) 3,400 6.6 -6.4°
Reaches altitude 10° 21:02:19 10° 205° (SSW) 2,467 5.9 -6.6°
Maximum altitude 21:08:00 86° 118° (ESE) 855 3.7 -7.2°
Drops below altitude 10° 21:13:42 10° 29° (NNE) 2,476 6.4 -7.8°
Sets 21:16:09 0° 30° (NNE) 3,414 7.2 -8.1°
